GAOFEN 3 03

Satellite information

Favourite Embed

Satellite Type and Status

PAYLOADIN ORBIT

Key statistics

Satellite GAOFEN 3 03 at a glance.

Uptime

1189

Days in orbit

Revolutions

≈ 14.4

Per day

Orbit

SSO

Sun Synchronous Orbit

Inclination

98.4

Latest

Satellite identification and parameters

Extended collection of information and parameters for GAOFEN 3 03.

Object identification

Identified? True

Debris? False

Object name: GAOFEN 3 03

International designator: 2022-035A

Object number (NORAD): 52200

Object ID (CCSDS): 52200

Country: PEOPLES REPUBLIC OF CHINA (PRC)

Current information (Y/N): Y

RCS size: LARGE

Orbital parameters

Period: 99.846 minutes

Inclination: 98.4091 deg

SMA: 7129.308 km

Apoapsis: 752.306 km

Periapsis: 750.04 km

RAAN: 197.4806 deg

Eccentricy: 0.0001589

Argument of periapsis: 102.7063 deg

Mean anomaly: 257.4305 deg

Mean motion: 14.42220601 rev/day

Mean motion (dot): 0.00000017 rev/day2

B* drag term: 0.000018423 1/REarth

Two-line elements (TLE)

Creation date: July 8, 2025, 2:27 a.m.

Reference frame: TEME

Reference center: EARTH

Epoch: July 7, 2025, 11:25 p.m. UTC

TLE line 0: 0 GAOFEN 3 03

TLE line 1: 1 52200U 22035A 25188.97597565 .00000017 00000-0 18423-4 0 9998

TLE line 2: 2 52200 98.4091 197.4806 0001589 102.7063 257.4305 14.42220601171231

Live tracking on map

Real-time ground track for satellite GAOFEN 3 03.

In-orbit conjunctions

There are no conjunctions computed for GAOFEN 3 03, at the moment. Check back to stay up to date, as we update our databases every day.

Go to all conjunctions

Associated space launch

Gaofen (GF) is a series of Chinese civilian remote sensing satellites for the state-sponsored program China High-definition Earth Observation System (CHEOS). GF 3 features a multi-polarized C-band SAR at meter-level resolution, with designed lifespan of 8 years. The satellite is based on the CS-L3000B bus.

GAOFEN 3 03 was lifted into orbit during the mission ‘Long March 4C | Gaofen-3 03’, on board a Long March 4C space rocket.

The launch took place on April 6, 2022, 11:47 p.m. from Launch Area 4 (SLS-2 / 603).

For more information about the launch, click the button.

Launch to space Long March 4C | Gaofen-3 03
Long March 4C | Gaofen-3 03

Agency: N/A

Status: Launch Successful

Launch date: April 6, 2022, 11:47 p.m. UTC

Rocket: Long March 4C

Launch pad: Launch Area 4 (SLS-2 / 603)

Location: Jiuquan Satellite Launch Center, People's Republic of China

...

Latest news about this satellite

There are no fresh news available about this satellite. Check back as we update our databases every day.


Newsletter sign-up

Weekly statistics, charts and insights to help you stay on top of the space industry.